Location: Unspecified
(35.6961°N, 0.0000°E)
Time: 01:46:33
(UTC+00:00)

Vanguard 2 Rocket - Pass Details

Date: 26 May 2019
Orbit: 554 x 3326 km, 32.9° (Epoch: 17 June)

Event Time Altitude Azimuth Distance (km) Brightness Sun altitude
Rises 02:05:02 0° 205° (SSW) 6,961 - -25.7°
Reaches altitude 10° 02:10:26 10° 196° (SSW) 6,145 - -25.0°
Exits shadow 02:16:04 20° 183° (S) 5,407 10.3 -24.4°
Maximum altitude 02:26:37 31° 143° (SE) 4,621 10.3 -23.1°
Drops below altitude 10° 02:40:57 10° 89° (E) 5,516 11.4 -21.2°
Sets 02:45:20 0° 80° (E) 6,193 12.0 -20.7°
